Find Starlink 34496

NORAD ID: 64476 Int'l Des: 2025-133 Owner: SPXS Country: US Constellation: starlink operational
LEOCIRCULAR

現在のビュー

3D地球を読み込み中...

About Starlink 34496

Starlink 34496 (NORAD 64476) is a starlink constellation satellite (v2 mini) launched Jun 23, 2025 by SPXS of US. It operates in LEO, CIRCULAR orbit with a mass of 575.00 kg.

次回通過

Passes for default location (London). Set your location on the main map for personalized predictions.

高度履歴

Loading altitude history...

軌道要素

1 64476U 25133E 26265.36098263 .00011572 00000-0 35330-3 0 9992
2 64476 53.1587 277.3221 0004116 88.7282 271.4192 15.34378741 71376
Epoch: Sep 22, 2026 • Age: 23 hours

現在のステータス

高度 482.6 km
遠地点 / 近地点 N/A
速度 7.62 km/s
衛星直下点 -50.00°S, 38.59°E
打ち上げ日 Jun 23, 2025
運用期間 1.2 years
タイプ internet

技術仕様

分類 Payload
質量 575.00 kg
乾燥質量 530.00 kg
長さ 0.30 m
スパン 29.00 m
形状 ? Box + pan
製造者 SPXS
バスタイプ Starlink V2MO
フェーズステータス In Orbit
所有者/国 SPXS/US

Most Searched